Starlink 32784

operational
NORAD ID: 62607 Int'l Des: 2025-008 Owner: SPXS Country: US Constellation: starlink
LEOCIRCULAR

About Starlink 32784

Description loading...

Live Position

Loading 3D Globe...

Upcoming Passes

Altitude History

Altitude vs Time

uPlot chart will show altitude changes over time

Two-Line Element Set

1 62607U 25008W 25350.10589977 .00022402 00000-0 82086-3 0 9994
2 62607 43.0008 29.7581 0000972 262.8131 97.2610 15.27591043 52842
Epoch: Dec 16, 2025 • Age: 26 hours

Current Status

Altitude 483.9 km
Velocity 7.63 km/s
Sub-Earth Point 29.95°N, 16.31°E
Launch Date Jan 13, 2025
Age 0.9 years
Type internet

Technical Details

Classification Payload
Mass 730.00 kg
Dry Mass 700.00 kg
Total Mass 730.00 kg
Length 0.30 m
Diameter 4.10 m
Span 29.00 m
Shape Box + pan
Manufacturer SPXS
Bus Type Starlink V2M
Phase Status In Orbit
Owner/State SPXS/US

Large Constellations

Loading constellations...